Temp
11 13 14 14 14 14 14 13 13 13 13 13 13 12 12 12 12 11 10 10 10 9 8 7 7 7 7 7 7 7 7 9 8 9 11 12 12 12 12 13 12 12 13
9 12 13 13 13 14 14 14 14 14 14 13 12 11 11 11 11 11 10 10 9 9 8 7 7 6 6 6 6 6 6 6 8 8 8 8 10 12 12 12 12 12 12
9 9 10 13 13 14 14 14 14 14 14 13 13 11 11 11 11 11 10 10 9 9 8 7 6 6 6 6 6 6 6 6 7 8 8 8 8 8 11 11 11 11 11
8 8 10 12 13 13 13 13 14 14 14 13 12 11 11 10 11 10 10 10 9 9 8 7 6 6 6 6 6 6 6 6 6 8 9 9 9 8 8 10 10 10 10
8 8 9 11 13 13 13 14 14 14 13 13 12 11 11 11 10 10 10 10 9 9 8 7 7 6 6 6 6 6 6 6 6 6 7 9 10 9 8 8 9 9 9
8 8 11 12 13 13 13 13 13 13 13 12 12 11 11 11 10 10 10 9 9 8 8 7 6 6 6 6 6 6 6 6 7 7 7 8 9 9 9 8 9 9 8
7 7 8 10 11 12 12 12 12 12 12 12 12 11 11 10 10 10 10 9 9 9 8 7 6 6 6 5 6 6 6 6 7 7 7 8 8 7 7 7 8 8 9
7 7 9 10 10 11 12 12 11 11 11 11 11 11 11 11 11 10 10 9 9 8 8 7 7 6 6 5 5 5 6 6 7 7 7 7 7 8 7 7 7 7 8
8 7 9 10 10 11 11 11 10 10 11 10 11 11 11 11 11 10 10 9 9 8 8 7 7 7 6 5 5 5 5 5 5 6 6 7 7 7 6 6 6 6 7
8 7 8 10 11 11 10 10 10 9 9 9 10 10 10 10 10 10 9 9 9 8 8 8 7 7 6 6 5 5 5 5 5 5 5 5 5 5 5 5 5 5 6
8 7 8 10 10 10 9 9 9 9 9 9 9 10 10 10 10 9 9 9 8 8 8 7 7 7 6 6 5 5 5 4 4 4 4 4 5 5 4 4 4 4 4
7 7 8 9 9 9 9 8 8 8 8 8 9 9 9 9 9 9 9 8 8 7 7 7 6 6 6 6 5 5 5 4 4 4 4 4 4 3 3 3 3 3 3
8 7 8 8 8 8 8 8 8 8 8 8 8 8 9 9 9 9 8 8 8 8 7 7 7 7 6 6 6 5 5 4 4 4 4 4 3 3 3 3 2 3 3
7 7 7 7 8 8 8 8 8 8 8 8 8 8 8 8 8 8 8 8 8 8 7 7 7 6 6 6 6 5 5 5 4 4 3 3 3 2 2 2 2 3 3
8 8 7 6 7 8 8 8 8 8 7 7 7 7 7 7 7 7 7 7 7 7 7 7 7 6 6 6 6 5 5 4 4 4 4 3 3 3 2 1 2 2 3
8 8 7 7 8 8 8 7 7 7 7 7 6 6 7 7 7 7 7 7 7 6 6 6 6 5 5 6 5 5 4 4 4 4 4 4 3 3 3 2 2 3 3
8 7 7 7 8 8 7 7 7 7 7 6 6 6 5 6 6 6 6 6 6 6 6 6 6 5 5 5 5 5 4 4 4 4 3 3 3 3 2 2 2 2 2
7 7 7 8 8 8 8 7 7 6 6 6 6 6 5 5 5 5 5 5 5 5 5 5 5 5 5 5 5 5 4 4 4 4 3 3 3 3 2 2 2 1 1
8 9 9 9 8 8 8 7 7 6 6 5 5 5 5 5 5 5 4 5 4 4 4 4 4 4 5 5 5 4 3 3 3 3 4 3 3 3 3 1 1 1 1
9 9 9 8 7 8 7 6 6 6 6 5 5 5 5 5 4 4 4 4 4 4 4 5 5 4 4 5 4 3 2 2 2 2 3 3 3 3 2 1 1 0 1
9 9 8 8 8 7 6 6 6 6 6 6 5 5 5 5 4 4 4 4 4 4 4 4 4 4 4 4 3 2 1 1 1 1 1 1 2 2 1 1 1 1 1
8 8 6 7 7 7 6 6 6 7 6 5 5 5 5 5 4 4 4 3 3 3 3 2 3 3 3 3 2 0 1 1 1 1 1 1 1 0 1 1 1 1 1
7 7 6 6 7 7 6 5 7 6 6 5 5 5 4 4 4 3 3 2 2 1 1 1 1 1 2 3 2 0 -0 0 0 1 1 1 1 0 0 1 1 1 0
6 6 5 5 5 7 6 6 6 6 5 6 5 5 4 4 4 3 3 2 2 1 1 1 0 1 1 2 2 1 1 1 1 1 1 1 2 1 0 -0 0 0 0
5 5 5 5 6 7 7 7 6 5 4 5 5 4 4 4 4 4 3 3 3 2 2 2 1 -0 -1 1 0 1 1 1 1 1 1 -0 -0 0 -1 -1 -0 -0 -0
5 5 5 5 6 6 5 6 5 4 4 4 4 4 3 2 1 1 1 2 2 3 3 3 1 2 1 0 0 1 1 1 1 1 1 1 1 -1 -1 -2 -2 -2 -2
Height
821 820 818 817 817 815 814 813 811 809 806 805 804 803 802 800 799 798 794 792 791 792 790 789 787 785 782 779 776 774 772 770 770 767 765 763 763 763 764 763 762 764 764
822 820 819 818 816 814 812 811 809 808 806 804 803 802 800 798 796 794 793 791 790 789 787 787 786 784 781 779 776 775 774 771 770 770 769 768 765 763 763 763 763 764 764
826 823 818 815 814 812 810 809 807 805 803 802 800 800 798 796 794 792 790 789 788 786 785 785 784 782 781 779 777 776 775 774 771 771 771 769 770 767 763 763 763 763 763
826 821 817 815 813 811 810 807 804 801 800 798 797 796 795 793 791 790 788 787 785 784 783 783 782 781 779 778 778 776 775 775 774 771 770 770 771 771 768 762 762 762 761
824 819 818 815 812 810 807 805 802 799 796 795 793 791 790 789 788 787 786 785 783 782 781 780 779 778 777 776 776 775 775 774 774 772 771 770 770 770 770 764 763 762 761
820 818 816 814 811 809 807 805 802 799 796 793 790 788 786 785 784 783 783 782 781 780 779 778 777 776 775 774 774 774 773 773 772 771 770 770 770 768 767 765 762 761 758
820 818 816 813 810 808 806 804 800 796 793 790 788 785 783 781 779 779 779 779 779 778 778 776 775 774 773 772 772 772 772 771 770 770 769 768 768 767 766 765 762 759 757
820 818 815 813 810 808 806 802 798 793 791 788 785 783 781 778 776 776 776 775 775 774 774 773 772 772 771 770 770 770 770 769 768 767 767 766 765 765 764 763 762 756 754
817 816 813 811 809 807 804 800 796 793 789 786 782 780 778 776 774 773 772 772 771 770 770 770 769 768 767 767 766 766 766 766 765 765 764 763 762 761 761 760 760 760 753
816 814 812 810 808 805 801 798 795 791 788 784 781 777 775 773 772 771 770 769 768 768 767 766 765 765 764 764 763 763 762 761 760 760 760 760 759 759 758 757 756 756 755
815 813 810 808 806 803 799 796 792 788 785 781 778 775 772 771 770 770 769 769 768 767 765 764 763 762 761 760 759 758 757 757 756 756 755 755 755 754 754 753 752 751 751
814 811 808 806 804 801 797 794 791 787 784 780 776 773 770 768 767 766 766 766 766 765 764 763 762 761 760 758 757 755 754 753 752 751 750 749 750 749 749 747 746 745 745
810 808 806 804 802 799 796 792 789 786 783 779 775 771 768 766 764 763 762 761 760 760 759 757 757 756 755 754 753 752 751 750 748 747 746 745 745 744 744 742 742 742 740
808 806 804 802 800 797 795 791 788 784 781 777 774 772 769 766 763 761 760 758 756 755 754 752 751 750 749 748 747 747 745 745 744 743 743 742 741 739 738 738 737 737 735
805 804 801 799 797 794 792 789 787 785 781 778 774 771 768 765 763 761 760 758 756 754 752 750 748 746 745 744 742 741 740 739 738 738 737 736 736 735 734 733 732 733 732
801 800 798 796 793 792 790 788 786 783 780 777 774 771 767 763 761 759 757 755 753 752 751 750 748 746 743 741 740 738 735 734 733 732 731 731 731 730 729 729 728 729 727
798 796 795 793 790 789 788 785 783 781 779 777 774 770 766 763 760 757 755 753 750 749 747 744 742 739 737 736 734 733 730 729 727 726 726 725 725 725 724 723 723 722 722
792 791 789 788 786 785 784 783 781 779 777 775 772 769 766 762 759 756 753 750 748 745 743 741 739 736 734 731 729 727 724 722 720 719 719 718 717 717 718 717 715 714 715
785 784 784 783 782 782 781 780 778 777 775 772 770 767 763 761 758 754 751 749 746 743 740 738 735 732 728 726 723 721 719 717 715 714 712 710 709 709 710 711 709 709 708
781 780 780 779 779 778 777 776 774 773 771 769 767 764 761 759 755 753 750 748 744 740 737 733 731 729 725 723 720 717 715 712 709 706 704 704 703 701 702 702 702 701 700
776 776 777 776 774 774 774 772 771 769 768 765 763 760 759 756 753 750 747 743 740 737 734 730 727 724 722 718 716 714 711 708 705 702 698 696 696 697 695 694 693 692 694
771 773 773 771 770 770 770 769 766 765 763 761 758 756 754 752 750 746 744 742 739 735 731 726 721 718 716 713 710 708 707 706 703 698 695 692 690 689 689 688 685 685 686
769 768 767 766 766 767 766 765 762 760 759 756 753 750 749 747 746 743 740 737 734 732 727 722 716 712 708 706 704 702 700 699 697 694 691 688 685 683 681 681 681 681 679
764 764 762 763 763 763 762 760 758 757 754 751 748 745 743 741 738 737 734 733 729 724 721 717 711 707 704 700 698 695 693 691 689 686 682 679 677 676 674 673 673 673 672
763 762 760 760 759 758 757 756 754 752 749 745 742 739 738 734 730 726 723 723 721 718 713 710 707 703 698 694 692 690 687 685 683 680 676 671 668 666 665 665 664 665 665
759 758 757 757 754 753 751 750 749 747 744 740 737 735 731 728 725 721 715 712 710 709 705 701 698 694 691 687 685 683 680 678 676 672 668 663 661 658 657 656 655 654 655
Wind_Speed
7 10 13 12 11 9 10 10 10 9 10 11 14 14 14 14 11 13 11 13 13 14 14 14 13 14 14 13 13 12 10 7 9 7 7 6 5 5 12 6 8 5 4
8 14 14 12 13 14 14 13 13 13 13 13 13 14 16 13 14 11 11 12 13 13 12 11 13 13 13 12 11 11 10 5 9 6 3 3 3 4 4 7 6 11 7
7 8 14 17 17 17 15 15 16 16 15 14 15 15 16 14 14 12 12 11 13 11 9 10 11 11 11 11 11 10 9 6 4 9 1 3 2 5 3 4 7 17 9
6 6 13 15 16 16 16 16 17 17 17 15 16 16 17 17 17 15 14 13 12 10 9 10 9 9 8 9 10 10 8 6 6 5 4 1 3 2 4 5 18 9 19
6 7 12 12 12 13 15 18 19 18 16 15 17 18 19 19 18 17 15 13 12 10 9 9 8 8 7 7 8 9 9 6 7 6 6 4 7 7 4 5 6 17 16
7 9 12 13 13 12 14 19 22 23 20 17 15 16 19 20 19 18 16 14 13 11 9 9 8 7 7 6 5 8 8 8 7 7 7 8 5 6 5 4 10 12 15
6 7 10 17 18 17 18 20 25 26 22 20 17 15 16 18 19 17 15 14 14 12 10 10 8 8 8 8 7 7 8 8 9 8 10 11 12 10 10 9 10 6 17
5 7 11 16 16 17 18 22 25 26 23 21 19 16 15 15 15 15 14 13 13 12 11 10 9 9 9 8 8 9 9 9 10 11 11 13 13 16 17 10 11 8 8
6 7 13 14 14 16 19 22 24 24 23 22 19 16 15 14 13 12 12 12 12 11 11 11 11 10 9 9 8 9 10 10 10 10 11 12 13 12 12 14 13 9 7
7 7 11 12 16 18 19 19 20 22 21 20 19 17 15 14 13 13 13 13 12 12 12 11 11 10 10 10 10 11 9 8 10 9 11 14 14 15 16 15 13 12 12
7 6 10 12 16 18 19 19 19 20 20 20 19 18 17 14 13 13 13 14 14 14 14 13 12 12 12 11 12 12 13 13 13 12 13 14 14 16 16 15 19 21 17
7 6 8 12 15 17 19 20 19 19 20 20 19 18 16 13 11 11 12 12 14 14 15 15 15 15 15 14 14 15 14 15 16 16 17 17 16 17 18 19 17 17 16
7 6 8 10 13 14 16 17 17 18 19 20 19 18 16 13 10 10 10 11 12 13 13 14 15 16 16 16 16 16 17 17 18 17 17 17 16 18 19 17 17 16 16
7 5 6 9 12 13 15 16 16 17 18 18 17 18 18 16 13 12 12 12 12 13 14 14 16 16 17 17 17 17 18 18 19 18 18 18 18 19 18 17 16 16 17
6 6 5 8 11 12 13 14 15 16 16 16 16 17 17 17 16 16 16 15 15 15 15 16 17 17 18 19 19 18 19 19 20 19 19 20 20 19 18 16 16 17 17
7 7 6 10 12 12 14 13 14 15 16 14 15 16 17 17 17 16 16 16 16 16 17 18 20 21 20 20 20 19 21 21 21 23 23 22 21 21 20 19 19 19 17
8 8 8 12 13 13 12 14 15 14 14 14 15 17 18 18 18 17 16 16 15 15 15 16 17 19 19 19 19 20 22 23 24 24 25 25 24 21 20 19 18 19 18
9 8 11 13 13 11 12 13 12 12 13 13 15 17 19 18 18 17 16 16 16 16 17 17 18 21 20 19 19 20 21 24 25 25 25 26 26 24 23 22 22 22 21
13 15 14 15 15 12 12 12 13 12 12 12 14 16 17 19 18 18 19 18 18 19 19 19 20 20 21 19 18 18 21 25 28 28 28 27 27 26 23 22 23 23 23
20 18 15 15 14 12 9 11 13 14 14 14 15 15 15 16 18 18 18 18 18 18 18 19 18 20 21 20 19 17 18 23 27 29 29 29 28 26 22 22 23 21 22
19 15 14 16 16 11 10 12 13 15 15 15 16 15 16 17 16 18 17 18 19 19 19 19 21 21 22 24 24 19 17 21 26 26 26 29 29 25 23 23 26 28 23
15 13 12 14 12 10 10 13 16 16 16 17 18 18 18 19 19 19 20 20 21 21 22 22 24 24 25 26 25 18 17 19 22 27 29 32 30 25 24 23 26 22 19
15 13 12 11 11 11 10 13 18 17 18 20 22 21 21 22 20 19 21 21 21 21 22 21 22 25 27 29 28 21 19 20 22 25 29 27 29 27 24 25 24 21 21
11 8 5 8 11 12 13 16 19 17 17 21 24 25 24 25 24 23 22 22 23 22 22 21 20 24 26 27 28 26 25 24 25 28 30 31 28 24 26 24 25 26 26
8 6 6 9 13 15 19 22 22 18 21 24 23 24 27 28 28 27 26 25 25 23 23 23 23 22 21 26 20 23 26 26 26 31 29 25 22 23 20 24 28 29 28
8 9 13 15 21 24 26 27 25 20 21 23 25 27 27 30 30 30 31 28 27 26 25 25 24 28 28 26 25 25 28 31 31 28 24 23 23 21 21 21 22 26 27
Wind_Direction
326 6 6 355 346 348 340 336 330 326 339 335 330 328 323 331 335 337 343 340 336 326 326 325 328 335 341 348 355 350 349 353 356 335 335 347 359 101 5 13 85 39 31
344 344 340 346 348 336 336 334 333 328 332 321 316 307 311 317 323 333 337 340 335 330 332 325 329 339 346 352 5 10 2 337 7 2 313 351 335 327 43 26 78 22 15
319 317 343 355 352 357 345 331 323 318 317 313 305 297 301 305 315 321 329 336 335 333 331 323 323 334 343 349 359 9 6 355 338 351 250 12 354 324 309 18 5 350 348
311 304 351 345 356 356 355 349 339 327 317 306 295 287 289 292 304 314 318 329 332 332 325 321 319 324 332 340 345 353 355 342 329 8 20 17 54 335 320 324 325 336 332
296 327 323 329 343 355 0 0 354 348 333 316 295 283 280 285 294 301 307 317 326 327 321 315 319 315 318 324 323 330 338 339 323 326 325 328 302 282 242 300 308 318 323
327 323 335 339 339 343 357 358 354 350 344 326 314 291 280 285 287 293 299 309 320 322 319 313 310 314 311 309 308 305 309 311 315 315 302 286 302 295 291 288 306 307 315
318 324 333 341 337 337 341 343 345 342 340 335 320 309 296 288 283 285 289 295 311 317 321 315 309 309 314 307 296 292 298 294 290 298 300 291 293 304 305 306 304 298 305
305 313 323 338 339 338 338 339 341 341 341 336 328 316 309 299 287 284 284 285 298 303 311 312 309 306 306 314 298 291 290 289 286 285 284 288 287 284 288 281 296 302 295
322 322 333 342 344 344 338 339 339 338 337 336 332 323 318 310 296 284 277 279 289 295 302 305 303 301 297 296 297 290 278 284 287 281 287 284 284 283 288 294 290 287 301
326 327 336 336 338 339 338 340 340 336 336 339 340 333 323 313 300 287 279 279 287 290 291 291 290 289 289 285 281 282 281 281 288 292 280 282 283 283 288 291 296 297 288
322 314 314 328 335 340 343 342 344 343 342 340 335 333 330 321 308 296 290 290 291 294 292 291 288 287 289 286 281 280 278 274 273 267 269 274 268 271 280 284 286 281 275
288 292 304 325 334 340 344 345 345 346 344 342 339 336 334 322 316 310 303 299 299 300 300 298 296 296 297 294 287 285 280 275 275 274 273 274 276 271 277 285 280 278 276
296 286 306 322 326 331 340 346 349 348 350 350 352 353 349 339 324 322 312 303 298 295 292 288 287 289 290 289 288 287 285 282 282 281 277 277 275 276 283 281 277 277 282
268 273 296 314 320 325 333 342 350 354 354 357 357 357 357 351 338 324 315 308 304 299 296 291 286 286 287 285 286 286 284 283 283 282 279 279 279 281 282 279 273 275 281
261 260 290 295 301 312 321 331 337 343 346 350 357 360 357 355 351 346 335 323 314 311 307 302 296 292 288 288 287 285 283 282 283 280 277 276 278 280 278 269 269 272 269
254 261 276 294 303 304 308 320 327 333 341 344 350 353 357 358 357 350 345 340 335 329 321 316 311 307 302 301 295 287 282 280 278 279 281 280 279 277 277 266 260 262 273
260 258 266 277 288 290 301 314 322 326 333 338 347 352 353 356 357 355 352 346 342 336 329 321 314 309 306 304 298 291 280 278 277 278 281 283 284 280 278 275 264 262 260
256 253 267 285 297 292 300 306 314 320 328 333 340 345 347 347 349 351 352 349 346 342 337 332 328 320 319 316 308 298 286 278 276 276 278 278 281 279 278 277 274 266 270
262 254 279 292 285 283 298 302 310 317 327 329 333 337 341 339 341 344 345 346 343 341 341 339 335 331 329 331 321 308 295 289 286 284 280 276 276 278 273 263 267 268 271
278 265 287 299 282 286 291 296 303 310 315 322 324 327 329 328 326 330 333 336 335 332 335 336 340 339 335 338 335 327 305 295 294 293 289 285 278 278 266 251 253 256 258
282 274 286 284 283 287 287 290 293 294 311 309 309 314 317 317 318 316 317 322 324 324 327 330 334 338 342 339 338 330 313 301 298 293 291 291 291 280 260 245 249 252 265
298 287 289 282 287 287 283 288 290 309 308 306 302 305 311 313 310 309 309 313 316 315 316 323 329 336 339 341 338 325 318 311 300 294 292 293 292 278 268 254 247 246 249
297 289 291 285 290 290 279 282 297 308 310 309 305 305 309 310 307 302 301 300 304 303 306 313 317 323 333 333 334 329 319 315 307 305 305 297 289 278 270 260 251 246 244
284 291 280 286 290 296 289 285 292 300 305 304 301 301 301 305 304 299 295 290 290 293 297 302 303 313 317 322 325 321 321 318 314 309 302 301 296 286 270 262 253 246 245
300 303 292 283 282 289 291 299 306 308 291 292 293 296 297 297 294 291 287 283 281 282 285 288 295 291 291 300 299 297 299 304 307 307 303 292 278 278 266 256 251 255 250
292 292 290 286 291 304 309 310 313 313 310 301 302 301 302 300 296 293 294 293 288 285 282 284 276 287 286 288 291 292 290 291 291 296 291 288 278 260 258 250 248 245 243